• In Hungary
  • List of Countries
  • For 7 days
  • Water Temperature
  • Satellite Maps
  • Weather Map
  • News
  • Weather Widgets
  • user-avatar
    Login

    Hourly Weather Orlik

    Today, 22 February, Thursday

    Time Temperature Precipitation Wind Pressure Humidity
    00:00 -19°C° 0.1 mm 2 mps 637 mmHg 93%
    01:00 -19°C° 0 mm 2 mps 637 mmHg 94%
    02:00 -20°C° 0.1 mm 2 mps 637 mmHg 94%
    03:00 -20°C° 0.1 mm 2 mps 637 mmHg 94%
    04:00 -20°C° 0.1 mm 2 mps 636 mmHg 94%
    05:00 -20°C° 0.1 mm 2 mps 636 mmHg 94%
    06:00 -20°C° 0.1 mm 2 mps 636 mmHg 94%
    07:00 -20°C° 0 mm 2 mps 636 mmHg 94%
    08:00 -19°C° 0.1 mm 2 mps 636 mmHg 93%
    09:00 -17°C° 0.1 mm 2 mps 636 mmHg 91%
    10:00 -16°C° 0.1 mm 2 mps 637 mmHg 89%
    11:00 -15°C° 0.1 mm 2 mps 636 mmHg 85%
    12:00 -14°C° 0.1 mm 2 mps 636 mmHg 80%
    13:00 -14°C° 0 mm 3 mps 636 mmHg 76%
    14:00 -14°C° 0.1 mm 3 mps 636 mmHg 77%
    15:00 -14°C° 0.1 mm 3 mps 636 mmHg 78%
    16:00 -13°C° 0.1 mm 2 mps 636 mmHg 80%
    17:00 -15°C° 0 mm 2 mps 636 mmHg 85%
    18:00 -15°C° 0 mm 1 mps 636 mmHg 90%
    19:00 -18°C° 0 mm 1 mps 636 mmHg 96%
    20:00 -19°C° 0 mm 1 mps 636 mmHg 95%
    21:00 -19°C° 0 mm 1 mps 636 mmHg 95%
    22:00 -21°C° 0 mm 2 mps 636 mmHg 95%
    23:00 -21°C° 0 mm 2 mps 637 mmHg 94%

    Tomorrow, 23 February, Friday

    Time Temperature Precipitation Wind Pressure Humidity
    00:00 -21°C° 0 mm 2 mps 637 mmHg 94%
    01:00 -20°C° 0 mm 2 mps 637 mmHg 93%
    02:00 -20°C° 0.1 mm 2 mps 637 mmHg 93%
    03:00 -19°C° 0.1 mm 2 mps 637 mmHg 93%
    04:00 -18°C° 0.1 mm 2 mps 638 mmHg 93%
    05:00 -18°C° 0.1 mm 2 mps 638 mmHg 93%
    06:00 -17°C° 0.1 mm 2 mps 638 mmHg 93%
    07:00 -17°C° 0.1 mm 2 mps 638 mmHg 93%
    08:00 -16°C° 0 mm 2 mps 639 mmHg 90%
    09:00 -16°C° 0 mm 3 mps 639 mmHg 88%
    10:00 -14°C° 0 mm 3 mps 640 mmHg 85%
    11:00 -13°C° 0 mm 3 mps 640 mmHg 81%
    12:00 -14°C° 0 mm 4 mps 640 mmHg 76%
    13:00 -13°C° 0 mm 5 mps 640 mmHg 72%
    14:00 -12°C° 0 mm 4 mps 640 mmHg 73%
    15:00 -14°C° 0 mm 4 mps 640 mmHg 74%
    16:00 -13°C° 0 mm 3 mps 640 mmHg 75%
    17:00 -15°C° 0 mm 3 mps 640 mmHg 79%
    18:00 -18°C° 0 mm 3 mps 640 mmHg 83%
    19:00 -19°C° 0 mm 2 mps 640 mmHg 88%
    20:00 -19°C° 0 mm 2 mps 640 mmHg 89%
    21:00 -20°C° 0 mm 2 mps 640 mmHg 89%
    22:00 -20°C° 0 mm 2 mps 640 mmHg 90%
    23:00 -19°C° 0 mm 2 mps 640 mmHg 90%

    Day after tomorrow, 24 February, Saturday

    Time Temperature Precipitation Wind Pressure Humidity
    00:00 -19°C° 0 mm 2 mps 640 mmHg 91%
    01:00 -18°C° 0 mm 2 mps 640 mmHg 91%
    02:00 -18°C° 0 mm 2 mps 640 mmHg 91%
    03:00 -18°C° 0 mm 2 mps 640 mmHg 91%
    04:00 -19°C° 0 mm 3 mps 639 mmHg 91%
    05:00 -19°C° 0 mm 3 mps 639 mmHg 91%
    06:00 -19°C° 0 mm 3 mps 639 mmHg 91%
    07:00 -19°C° 0 mm 3 mps 639 mmHg 91%
    08:00 -18°C° 0 mm 3 mps 640 mmHg 89%
    09:00 -16°C° 0 mm 3 mps 640 mmHg 87%
    10:00 -15°C° 0 mm 3 mps 640 mmHg 85%
    11:00 -14°C° 0 mm 3 mps 640 mmHg 81%
    12:00 -12°C° 0 mm 3 mps 639 mmHg 77%
    13:00 -10°C° 0 mm 3 mps 639 mmHg 73%
    14:00 -10°C° 0 mm 3 mps 639 mmHg 74%
    15:00 -10°C° 0 mm 3 mps 638 mmHg 75%
    16:00 -9°C° 0 mm 2 mps 638 mmHg 76%
    17:00 -10°C° 0.1 mm 2 mps 638 mmHg 80%
    18:00 -12°C° 0.1 mm 2 mps 638 mmHg 85%
    19:00 -14°C° 0.1 mm 2 mps 638 mmHg 89%
    20:00 -14°C° 0.1 mm 2 mps 638 mmHg 90%
    21:00 -15°C° 0.1 mm 2 mps 638 mmHg 91%
    22:00 -15°C° 0.1 mm 2 mps 638 mmHg 92%
    23:00 -16°C° 0 mm 2 mps 638 mmHg 92%

    25 February, Sunday

    Time Temperature Precipitation Wind Pressure Humidity
    00:00 -16°C° 0 mm 2 mps 637 mmHg 92%
    01:00 -17°C° 0 mm 2 mps 637 mmHg 92%
    02:00 -17°C° 0 mm 2 mps 637 mmHg 92%
    03:00 -17°C° 0 mm 2 mps 636 mmHg 92%
    04:00 -18°C° 0 mm 2 mps 636 mmHg 92%
    05:00 -17°C° 0 mm 2 mps 636 mmHg 91%
    06:00 -17°C° 0 mm 2 mps 636 mmHg 91%
    07:00 -16°C° 0 mm 2 mps 636 mmHg 90%
    08:00 -15°C° 0.2 mm 2 mps 637 mmHg 91%
    09:00 -13°C° 0.2 mm 2 mps 637 mmHg 91%
    10:00 -12°C° 0.2 mm 2 mps 637 mmHg 91%
    11:00 -12°C° 0.1 mm 4 mps 638 mmHg 85%
    12:00 -14°C° 0.1 mm 6 mps 638 mmHg 80%
    13:00 -13°C° 0.1 mm 7 mps 638 mmHg 74%
    14:00 -14°C° 0.1 mm 7 mps 638 mmHg 76%
    15:00 -14°C° 0.1 mm 7 mps 639 mmHg 77%
    16:00 -15°C° 0.1 mm 7 mps 639 mmHg 79%
    17:00 -15°C° 0.1 mm 5 mps 640 mmHg 83%
    18:00 -17°C° 0.1 mm 4 mps 640 mmHg 87%
    19:00 -17°C° 0.1 mm 3 mps 641 mmHg 91%
    20:00 -17°C° 0.1 mm 2 mps 641 mmHg 92%
    21:00 -18°C° 0.1 mm 2 mps 641 mmHg 93%
    22:00 -19°C° 0.1 mm 2 mps 642 mmHg 93%
    23:00 -20°C° 0 mm 2 mps 642 mmHg 93%

    26 February, Monday

    Time Temperature Precipitation Wind Pressure Humidity
    00:00 -21°C° 0 mm 2 mps 642 mmHg 93%
    01:00 -23°C° 0 mm 2 mps 642 mmHg 92%
    02:00 -23°C° 0 mm 2 mps 642 mmHg 92%
    03:00 -24°C° 0 mm 2 mps 642 mmHg 91%
    04:00 -25°C° 0 mm 2 mps 642 mmHg 91%
    05:00 -25°C° 0 mm 2 mps 642 mmHg 91%
    06:00 -25°C° 0 mm 2 mps 642 mmHg 91%
    07:00 -25°C° 0 mm 2 mps 642 mmHg 91%
    08:00 -23°C° 0 mm 2 mps 642 mmHg 89%
    09:00 -20°C° 0 mm 2 mps 642 mmHg 88%
    10:00 -19°C° 0 mm 2 mps 643 mmHg 86%
    11:00 -18°C° 0 mm 2 mps 642 mmHg 81%
    12:00 -18°C° 0 mm 3 mps 642 mmHg 77%
    13:00 -17°C° 0 mm 3 mps 642 mmHg 72%
    14:00 -17°C° 0.1 mm 3 mps 642 mmHg 73%
    15:00 -17°C° 0.1 mm 3 mps 641 mmHg 73%
    16:00 -17°C° 0.1 mm 3 mps 641 mmHg 74%
    17:00 -18°C° 0 mm 2 mps 641 mmHg 80%
    18:00 -19°C° 0 mm 2 mps 641 mmHg 86%
    19:00 -19°C° 0 mm 1 mps 641 mmHg 92%
    20:00 -19°C° 0 mm 1 mps 641 mmHg 93%
    21:00 -20°C° 0 mm 1 mps 642 mmHg 94%
    22:00 -21°C° 0 mm 1 mps 642 mmHg 95%
    23:00 -22°C° 0 mm 1 mps 641 mmHg 95%

    27 February, Tuesday

    Time Temperature Precipitation Wind Pressure Humidity
    00:00 -22°C° 0 mm 1 mps 641 mmHg 95%
    01:00 -23°C° 0 mm 1 mps 641 mmHg 95%
    02:00 -24°C° 0 mm 1 mps 641 mmHg 95%
    03:00 -24°C° 0 mm 1 mps 641 mmHg 96%
    04:00 -25°C° 0 mm 1 mps 641 mmHg 96%
    05:00 -25°C° 0 mm 1 mps 641 mmHg 96%
    06:00 -27°C° 0 mm 1 mps 641 mmHg 95%
    07:00 -27°C° 0 mm 1 mps 641 mmHg 95%
    08:00 -25°C° 0 mm 1 mps 642 mmHg 92%
    09:00 -23°C° 0 mm 1 mps 642 mmHg 89%
    10:00 -21°C° 0 mm 1 mps 643 mmHg 86%
    11:00 -20°C° 0 mm 1 mps 642 mmHg 81%
    12:00 -20°C° 0 mm 1 mps 642 mmHg 76%
    13:00 -19°C° 0 mm 1 mps 642 mmHg 72%
    14:00 -18°C° 0 mm 1 mps 642 mmHg 73%
    15:00 -18°C° 0 mm 1 mps 642 mmHg 74%
    16:00 -18°C° 0 mm 1 mps 641 mmHg 76%
    17:00 -20°C° 0 mm 1 mps 641 mmHg 81%
    18:00 -21°C° 0 mm 1 mps 641 mmHg 87%
    19:00 -23°C° 0 mm 1 mps 641 mmHg 92%
    20:00 -24°C° 0 mm 1 mps 641 mmHg 93%
    21:00 -24°C° 0 mm 1 mps 641 mmHg 94%
    22:00 -25°C° 0 mm 1 mps 641 mmHg 95%
    23:00 -25°C° 0 mm 1 mps 641 mmHg 96%
    Show more